Location: Unspecified
(40.7945°N, 0.0000°E)
Time: 06:46:19
(UTC+00:00)

Tiros 1 despin weight - Pass Details

Date: 21 January 2021
Orbit: 593 x 642 km, 48.2° (Epoch: 06 March)

Event Time Altitude Azimuth Distance (km) Brightness Sun altitude
Rises 17:46:09 0° 282° (WNW) 2,862 ? -8.2°
Reaches altitude 10° 17:48:40 10° 292° (WNW) 1,950 ? -8.6°
Maximum altitude 17:52:40 31° 356° (N) 1,051 ? -9.3°
Enters shadow 17:56:11 12° 56° (ENE) 1,778 ? -10.0°
